Regional Weather Roundup
Issued by NWS

Home | Current Version | Previous Version | Graphics & Text | Print | Product List | Glossary Off
Versions: 1 2 3 4 5 6 7 8 9 10 11 12 13 14 15 16 17 18 19 20 21 22 23 24 25 26 27 28 29 30 31 32 33 34 35 36 37 38 39 40 41 42 43 44 45 46 47 48 49 50

000
ASUS43 KMKX 191821
RWRWI

WISCONSIN REGIONAL WEATHER ROUNDUP
NATIONAL WEATHER SERVICE MILWAUKEE/SULLIVAN WI
100 PM CDT THU OCT 19 2017

NOTE: "FAIR" INDICATES FEW OR NO CLOUDS BELOW 12,000 FEET WITH NO
SIGNIFICANT WEATHER AND/OR OBSTRUCTIONS TO VISIBILITY.

WIZ001-002-006>008-014>016-023>028-191900-
NORTHWEST WISCONSIN

CITY           SKY/WX    TMP DP  RH WIND       PRES   REMARKS
SUPERIOR ARPT  FAIR      65  31  27 SW9       30.00F
6HR MIN TEMP:  42; 6HR MAX TEMP:  65;

ASHLAND        FAIR      65  29  25 SW12      30.03F
6HR MIN TEMP:  43; 6HR MAX TEMP:  65;

HAYWARD        FAIR      64  27  24 SW12      30.05F
6HR MIN TEMP:  35; 6HR MAX TEMP:  64;

SIREN          FAIR      67  29  24 S12       30.03F
6HR MIN TEMP:  36; 6HR MAX TEMP:  67;

CUMBERLAND     FAIR      63  30  29 S9        30.06F
RICE LAKE      FAIR      65  27  23 S6        30.08F
6HR MIN TEMP:  35; 6HR MAX TEMP:  65;

CHETEK         FAIR      65  33  29 S6        30.07F
6HR MIN TEMP:  35; 6HR MAX TEMP:  65;

LADYSMITH      FAIR      65  30  27 SW9G16    30.10F
6HR MIN TEMP:  36; 6HR MAX TEMP:  65;

EAU CLAIRE     FAIR      66  28  24 S9        30.08F
6HR MIN TEMP:  35; 6HR MAX TEMP:  66;

MENOMONIE      FAIR      66  33  29 SE7       30.08F
6HR MIN TEMP:  37; 6HR MAX TEMP:  66;

NEW RICHMOND   FAIR      66  27  22 S9        30.05F
6HR MIN TEMP:  39; 6HR MAX TEMP:  66;

OSCEOLA        FAIR      67  31  26 S12       30.07F
6HR MIN TEMP:  34; 6HR MAX TEMP:  67;

$$

WIZ003>005-009-010-017-018-191900-
NORTH CENTRAL WISCONSIN

CITY           SKY/WX    TMP DP  RH WIND       PRES   REMARKS
MANITOWISH WTR FAIR      61  29  30 SW9       30.06F
6HR MIN TEMP:  41; 6HR MAX TEMP:  61;

ARBOR VITAE    FAIR      62  28  27 W10G18    30.07S
6HR MIN TEMP:  42; 6HR MAX TEMP:  62;

WOODRUFF       FAIR      62  28  27 W10G18    30.07S
6HR MIN TEMP:  42; 6HR MAX TEMP:  62;

RHINELANDER    FAIR      62  27  26 W15       30.09S
6HR MIN TEMP:  36; 6HR MAX TEMP:  62;

EAGLE RIVER    FAIR      60  22  22 W14G22    30.06F
6HR MIN TEMP:  38; 6HR MAX TEMP:  60;

LAND O LAKES   FAIR      61  23  23 W13       30.07S
6HR MIN TEMP:  43; 6HR MAX TEMP:  61;

PHILLIPS       FAIR      61  30  31 SW13      30.07F
6HR MIN TEMP:  40; 6HR MAX TEMP:  61;

TOMAHAWK       FAIR      62  26  24 W6        30.09F
6HR MIN TEMP:  37; 6HR MAX TEMP:  62;

MEDFORD        FAIR      62  29  28 SW10      30.10F
6HR MIN TEMP:  38; 6HR MAX TEMP:  62;

MERRILL        FAIR      64  29  26 W10G16    30.10F
6HR MIN TEMP:  35; 6HR MAX TEMP:  64;

$$

WIZ029-030-035-036-043>047-191900-
CENTRAL WISCONSIN

CITY           SKY/WX    TMP DP  RH WIND       PRES   REMARKS
WAUSAU         FAIR      63  28  26 W9        30.10S
6HR MIN TEMP:  42; 6HR MAX TEMP:  63;

MOSINEE        MOSUNNY   63  28  27 W14       30.13F
MARSHFIELD     FAIR      65  26  23 W7        30.10F
6HR MIN TEMP:  42; 6HR MAX TEMP:  65;

STEVENS POINT  FAIR      63  28  26 SW9       30.12F
6HR MIN TEMP:  44; 6HR MAX TEMP:  63;

WAUPACA        FAIR      67  27  21 W10       30.13F
6HR MIN TEMP:  45; 6HR MAX TEMP:  67;

WAUTOMA        FAIR      67  30  25 W12       30.13F
6HR MIN TEMP:  38; 6HR MAX TEMP:  67;

WISC RAPIDS    FAIR      65  35  33 SW8       30.12F
6HR MIN TEMP:  36; 6HR MAX TEMP:  65;

CAMP DOUGLAS   PTSUNNY   66  34  30 S5        30.12F
$$

WIZ011>013-019>022-031-037>040-048>050-191900-
NORTHEAST WISCONSIN

CITY           SKY/WX    TMP DP  RH WIND       PRES   REMARKS
ANTIGO         FAIR      61  32  34 W10       30.10S
6HR MIN TEMP:  38; 6HR MAX TEMP:  61;

SHAWANO        FAIR      67  28  23 W12G18    30.09F
6HR MIN TEMP:  45; 6HR MAX TEMP:  67;

OCONTO         FAIR      64  30  28 W12G20    30.09F
6HR MIN TEMP:  40; 6HR MAX TEMP:  64;

STURGEON BAY   FAIR      61  30  31 W17       30.09F
6HR MIN TEMP:  48; 6HR MAX TEMP:  62;

GREEN BAY      FAIR      65  30  27 W9        30.11F
6HR MIN TEMP:  46; 6HR MAX TEMP:  65;

MANITOWOC      FAIR      64  29  26 W13       30.12F
6HR MIN TEMP:  48; 6HR MAX TEMP:  64;

APPLETON       MOSUNNY   63  27  25 SW9       30.11F
CLINTONVILLE   FAIR      66  25  20 W8        30.11F
OSHKOSH        FAIR      64  30  27 W6        30.13F
6HR MIN TEMP:  46; 6HR MAX TEMP:  64;

$$

WIZ032>034-041-042-053>061-191900-
SOUTHWEST WISCONSIN

CITY           SKY/WX    TMP DP  RH WIND       PRES   REMARKS
LA CROSSE      FAIR      66  38  35 S12       30.11F
6HR MIN TEMP:  44; 6HR MAX TEMP:  66;

SPARTA         FAIR      68  32  26 S6        30.12F
6HR MIN TEMP:  32; 6HR MAX TEMP:  68;

VIROQUA        FAIR      65  32  28 SE9       30.14F
6HR MIN TEMP:  43; 6HR MAX TEMP:  65;

BOSCOBEL       FAIR      70  27  20 VRB3      30.15F
6HR MIN TEMP:  37; 6HR MAX TEMP:  70;

PRAIRIE DU CHI FAIR      66  26  22 SE6       30.14F
6HR MIN TEMP:  40; 6HR MAX TEMP:  67;

PLATTEVILLE    FAIR      67  32  26 SE6       30.16F
6HR MIN TEMP:  44; 6HR MAX TEMP:  67;

$$

WIZ056-057-062-063-064-067-068-191900-
SOUTH CENTRAL WISCONSIN

CITY           SKY/WX    TMP DP  RH WIND       PRES   REMARKS
REEDSBURG      FAIR      66  31  27 SW5       30.14F
6HR MIN TEMP:  40; 6HR MAX TEMP:  66;

BARABOO/DELLS  FAIR      66  29  25 W3        30.14F
6HR MIN TEMP:  41; 6HR MAX TEMP:  66;

LONE ROCK      FAIR      66  34  30 E3        30.15F
6HR MIN TEMP:  38; 6HR MAX TEMP:  67;

MINERAL POINT  FAIR      68  27  21 CALM      30.16F
MADISON        PTSUNNY   64  34  32 S5        30.16F
6HR MIN TEMP:  42; 6HR MAX TEMP:  66;

MIDDLETON      FAIR      67  30  25 CALM      30.17F
6HR MIN TEMP:  41; 6HR MAX TEMP:  67;

WATERTOWN      FAIR      66  29  25 NW3       30.16F
6HR MIN TEMP:  40; 6HR MAX TEMP:  66;

MONROE         FAIR      66  27  22 SE3       30.16F
JANESVILLE     MOSUNNY   68  27  21 VRB3      30.17F
$$

WIZ051-052-058>065-066-070>072-191900-
SOUTHEAST WISCONSIN

CITY           SKY/WX    TMP DP  RH WIND       PRES   REMARKS
MILWAUKEE      PTSUNNY   67  29  24 VRB5      30.18S
6HR MIN TEMP:  53; 6HR MAX TEMP:  67;

WAUKESHA       SUNNY     63  28  27 W7        30.18S
MILWAUKEE/TIMM SUNNY     66  19  16 NW9       30.18S
RACINE         FAIR      65  25  22 SE7       30.19F
6HR MIN TEMP:  49; 6HR MAX TEMP:  66;

BURLINGTON     FAIR      65  29  25 CALM      30.17F
6HR MIN TEMP:  41; 6HR MAX TEMP:  66;

KENOSHA        FAIR      67  25  20 CALM      30.18F
6HR MIN TEMP:  44; 6HR MAX TEMP:  67;

FOND DU LAC    FAIR      65  26  23 W9        30.14F
6HR MIN TEMP:  46; 6HR MAX TEMP:  66;

SHEBOYGAN      FAIR      64  30  27 W8G17     30.14F
6HR MIN TEMP:  46; 6HR MAX TEMP:  65;

WEST BEND      FAIR      63  25  23 W5        30.15F
JUNEAU         FAIR      64  28  26 CALM      30.16F
6HR MIN TEMP:  42; 6HR MAX TEMP:  64;

$$

LSZ147-162-191900-
LAKE SUPERIOR

STATION/POSITION TIME  TEMP    WIND        PRES    WAVE
                       AIR SEA DIR/SP/G            HT/PER
                 (UTC) (F)     (DEG/KT/KT) (MB)    (FT/S)
W MID LAKE BUOY  1750   53 52              1015.2R   5/ 6
DEVILS ISLAND    1800   55     240/ 15/ 17 1016.3F
SAXON HARBOR     1740   64     200/  7/ 12 1016.3F
$$

LMZ867-665-643>646-191900-
LAKE MICHIGAN

STATION/POSITION TIME  TEMP    WIND        PRES    WAVE
                       AIR SEA DIR/SP/G            HT/PER
                 (UTC)



USA.gov is the U.S. government's official web portal to all federal, state and local government web resources and services.